Content
SEND FEEDBACK

Daily
Averages
Monthly
Summary
United States of America

ELKWOOD, VIRGINIA


Home > North America > United States > Virginia
Elevation: 31 feet     Latitude: 38 26N     Longitude: 077 46W

WEATHER
 
SELECT A DAY
Number of Records: 391,938;   Date Range: 5/11/98 - 8/28/14
 
SHARE

PRINT THIS DATA

[ ← Previous Day ]
WEATHER ALMANAC - FEBRUARY 13, 2013
[ Next Day → ]
[ °C ]   °F
Weather ElementAverageHighLow
Temperature40.7 °F46.4 °F (11:35 am)35.6 °F (4:55 am)
Dewpoint27.1 °F42.8 °F (4:15 pm)-43.6 °F (1:55 am)
Humidity74.6 %100 % (4:15 pm)4 % (12:35 am)
Barometer29.80 in29.94 in (12:35 am)29.67 in (2:55 pm)
Wind Speed3.2 mph6.9 mph (1:55 pm)
Weather ElementAverage
Visibility7.8 mi
Wind DirectionSSE (169.7 °)

Weather ElementTotal
Precipitation0.13 in
Heating Degree Days24 (Base 65)
Averaged from 70 records on February 13, 2013
WEATHER CONDITIONS BREAKOUT
WIND DIRECTION BREAKOUT
WEATHER BY HOUR - FEBRUARY 13, 2013
[ °C ]   °F
Local TimeTemperatureDewpointHumidityBarometerVisibilityWind DirectionWind SpeedGust SpeedPrecipitationEventsConditions
12:35 AM39.2 °F-41.8 °F4 %29.94 in10.0 miCalmClear
12:55 AM39.2 °F-41.8 °F4 %29.93 in10.0 miNorth (360°)5.8 mphClear
1:15 AM39.2 °F-41.8 °F4 %29.94 in10.0 miCalmClear
1:35 AM37.4 °F-41.8 °F4 %29.92 in10.0 miNorth (10°)3.5 mphClear
1:55 AM37.4 °F-43.6 °F4 %29.92 in10.0 miCalmClear
2:15 AM37.4 °F-41.8 °F4 %29.91 in10.0 miCalmClear
2:35 AM37.4 °F-41.8 °F4 %29.91 in10.0 miCalmClear
2:55 AM37.4 °F-29.2 °F5 %29.90 in10.0 miCalmClear
3:15 AM39.2 °F8.6 °F28 %29.89 in10.0 miNorth (360°)3.5 mphClear
3:35 AM37.4 °F6.8 °F28 %29.89 in10.0 miNorth (360°)3.5 mphClear
3:55 AM37.4 °F33.8 °F87 %29.89 in10.0 miCalmClear
4:15 AM39.2 °F33.8 °F81 %29.89 in10.0 miCalmClear
4:35 AM37.4 °F33.8 °F87 %29.90 in10.0 miCalmClear
4:55 AM35.6 °F32.0 °F87 %29.90 in10.0 miCalmClear
5:15 AM35.6 °F33.8 °F93 %29.89 in10.0 miNorth (10°)3.5 mphScattered Clouds
5:35 AM37.4 °F33.8 °F87 %29.89 in10.0 miNorth (360°)4.6 mphOvercast
5:55 AM37.4 °F33.8 °F87 %29.89 in10.0 miNorth (350°)4.6 mphOvercast
6:15 AM37.4 °F33.8 °F87 %29.88 in10.0 miNorth (350°)4.6 mphScattered Clouds
6:35 AM37.4 °F33.8 °F87 %29.86 in10.0 miNorth (360°)4.6 mphClear
7:15 AM37.4 °F33.8 °F87 %29.90 in10.0 miCalmClear
7:35 AM35.6 °F33.8 °F93 %29.90 in10.0 miCalmMostly Cloudy
7:55 AM37.4 °F33.8 °F87 %29.89 in10.0 miNorth (360°)3.5 mphOvercast
8:15 AM39.2 °F35.6 °F87 %29.88 in4.0 miNorth (360°)5.8 mphOvercast
8:35 AM41.0 °F33.8 °F76 %29.89 in10.0 miNNW (340°)4.6 mphOvercast
8:55 AM41.0 °F33.8 °F76 %29.87 in10.0 miNorth (360°)5.8 mphOvercast
9:15 AM42.8 °F33.8 °F70 %29.87 in10.0 miNorth (360°)4.6 mphMostly Cloudy
9:35 AM42.8 °F33.8 °F70 %29.85 in10.0 miNE (50°)4.6 mphScattered Clouds
9:55 AM42.8 °F33.8 °F70 %29.87 in10.0 miCalmClear
10:15 AM42.8 °F33.8 °F70 %29.85 in10.0 miNNE (30°)3.5 mphClear
10:35 AM44.6 °F33.8 °F66 %29.85 in10.0 miCalmClear
10:55 AM44.6 °F33.8 °F66 %29.83 in10.0 miENE (70°)4.6 mphClear
11:15 AM44.6 °F33.8 °F66 %29.83 in10.0 miESE (110°)3.5 mphClear
11:35 AM46.4 °F33.8 °F62 %29.82 in10.0 miCalmScattered Clouds
11:55 AM46.4 °F33.8 °F62 %29.80 in10.0 miNE (50°)3.5 mphScattered Clouds
12:15 PM46.4 °F35.6 °F66 %29.78 in10.0 miCalmScattered Clouds
12:35 PM46.4 °F35.6 °F66 %29.75 in10.0 miCalmClear
12:55 PM46.4 °F35.6 °F66 %29.75 in10.0 miCalmScattered Clouds
1:15 PM46.4 °F35.6 °F66 %29.73 in10.0 miNNW (340°)3.5 mphScattered Clouds
1:35 PM46.4 °F35.6 °F66 %29.73 in10.0 miNNW (340°)4.6 mphMostly Cloudy
1:55 PM46.4 °F35.6 °F66 %29.71 in10.0 miNorth (350°)6.9 mphLight Drizzle
2:15 PM46.4 °F35.6 °F66 %29.69 in10.0 miNorth (350°)5.8 mphRainLight Rain
2:35 PM46.4 °F37.4 °F71 %29.68 in10.0 miCalmDrizzle
2:55 PM46.4 °F39.2 °F76 %29.67 in10.0 miNNE (20°)5.8 mphRainLight Rain
3:15 PM46.4 °F39.2 °F76 %29.67 in10.0 miNorth (10°)3.5 mphOvercast
3:35 PM46.4 °F39.2 °F76 %29.68 in5.0 miNorth (350°)4.6 mphRainRain
3:55 PM44.6 °F39.2 °F81 %29.68 in5.0 miNNE (20°)3.5 mphRainLight Rain
4:15 PM42.8 °F42.8 °F100 %29.68 in4.0 miNNE (20°)3.5 mph0.01 inRainLight Rain
4:35 PM42.8 °F42.8 °F100 %29.68 in3.0 miCalm0.02 inHeavy Drizzle
4:55 PM42.8 °F42.8 °F100 %29.67 in3.0 miNNE (20°)3.5 mph0.02 inRainLight Rain
5:15 PM42.8 °F42.8 °F100 %29.67 in2.0 miCalm0.01 inRainLight Rain
5:35 PM42.8 °F42.8 °F100 %29.67 in3.0 miNNE (20°)5.8 mph0.01 inRainLight Rain
5:55 PM41.0 °F41.0 °F100 %29.67 in4.0 miNNE (20°)4.6 mph0.01 inRainLight Rain
6:15 PM41.0 °F41.0 °F100 %29.68 in2.5 miCalmRainRain
6:35 PM41.0 °F41.0 °F100 %29.69 in2.5 miNNW (330°)4.6 mphRainLight Rain
6:55 PM41.0 °F41.0 °F100 %29.70 in2.5 miNNW (340°)6.9 mphRainLight Rain
7:15 PM39.2 °F39.2 °F100 %29.71 in2.5 miNorth (350°)6.9 mph0.01 inRainLight Rain
7:35 PM39.2 °F39.2 °F100 %29.72 in3.0 miNNW (330°)5.8 mph0.02 inOvercast
7:55 PM37.4 °F37.4 °F100 %29.73 in2.5 miNNW (330°)5.8 mph0.02 inRainLight Rain
8:15 PM37.4 °F37.4 °F100 %29.73 in3.0 miNNW (330°)5.8 mphRainLight Rain
8:35 PM39.2 °F39.2 °F100 %29.73 in3.0 miNNW (340°)5.8 mphRainRain
8:55 PM39.2 °F39.2 °F100 %29.74 in4.0 miNNW (330°)6.9 mphLight Drizzle
9:15 PM39.2 °F39.2 °F100 %29.75 in4.0 miNNW (340°)5.8 mphLight Drizzle
9:35 PM39.2 °F39.2 °F100 %29.75 in5.0 miNorth (350°)4.6 mphOvercast
9:55 PM39.2 °F39.2 °F100 %29.76 in7.0 miNNW (330°)4.6 mphMostly Cloudy
10:15 PM39.2 °F39.2 °F100 %29.77 in10.0 miNNW (330°)3.5 mphClear
10:35 PM37.4 °F37.4 °F100 %29.77 in7.0 miNNW (340°)3.5 mphScattered Clouds
10:55 PM37.4 °F37.4 °F100 %29.77 in4.0 miNorth (360°)3.5 mphScattered Clouds
11:15 PM35.6 °F35.6 °F100 %29.78 in4.0 miNW (320°)4.6 mphClear
11:35 PM37.4 °F37.4 °F100 %29.79 in10.0 miNorth (360°)4.6 mphClear
11:55 PM35.6 °F35.6 °F100 %29.80 in5.0 miCalmClear
Hourly data recorded from KCJR, located miles away from Elkwood, Virginia







STORIES FROM OUR PARTNERS